Regional Weather Roundup
Issued by NWS

Home | Current Version | Previous Version | Text Only | Print | Product List | Glossary Off
Versions: 1 2 3 4 5 6 7 8 9 10 11 12 13 14 15 16 17 18 19 20 21 22 23 24 25 26 27 28 29 30 31 32 33 34 35 36 37 38 39 40 41 42 43 44 45 46 47 48 49 50

000
ASUS45 KSLC 240810
RWRUT

UTAH REGIONAL WEATHER ROUNDUP
NATIONAL WEATHER SERVICE SALT LAKE CITY UT
100 AM MST MON NOV 24 2014

UTZ001>011-023>025-240900-

NORTHERN UTAH

CITY           SKY/WX    TMP DP  RH WIND       PRES   REMARKS
BRIGHAM CITY   CLOUDY    37  24  60 S10       30.19S WCI  29
HILL AFB       CLOUDY    34  24  69 S7        30.19S WCI  27
LOGAN          CLOUDY    34  25  69 SE7       30.15F WCI  28
OGDEN          CLOUDY    35  24  64 S9        30.19S WCI  28
PROVO AIRPORT  CLOUDY    30  25  80 CALM      30.23F
SALT LAKE CITY CLOUDY    35  23  61 SE9       30.19F WCI  28
VERNAL         MOCLDY    22  14  71 CALM      30.08F
WENDOVER       PTCLDY    28  18  64 SE5       30.23S WCI  23
HEBER CITY     CLOUDY    27  25  93 CALM      30.16F
WEST JORDAN    CLOUDY    34  27  75 SE12      30.20F WCI  25

$$

UTZ012>022-026-027-240900-

SOUTHERN/CENTRAL UTAH

CITY           SKY/WX    TMP DP  RH WIND       PRES   REMARKS
BLANDING       CLEAR     25   9  49 N9        30.22R WCI  16
BRYCE CANYON   PTCLDY    18   8  65 NW12      30.20S WCI   5
CEDAR CITY     CLEAR     20  13  74 SE5       30.25F WCI  13
DELTA          PTCLDY    25  19  76 S9        30.26F WCI  16
MILFORD        CLEAR     20  15  81 S5        30.26F WCI  13
MOAB/CYNLANDS  CLEAR     28  11  48 VRB3      30.14F
PRICE          PTCLDY    32  13  45 NW10G26   30.10F WCI  24
ST GEORGE      CLOUDY    37   9  30 CALM      30.29F

$$

REGIONAL REPORTS     COLORADO/ARIZONA

CITY           SKY/WX    TMP DP  RH WIND       PRES   REMARKS
CRAIG, CO      CLOUDY    19  12  74 E3        30.06F
GRAND JUNCTION CLEAR     18  14  84 E5        30.13S WCI  11
RIFLE          PTCLDY    19  11  70 SE5       30.12S WCI  12
MONTROSE       CLEAR     19  12  74 SE9       30.16S WCI   8
CORTEZ         CLEAR     15  11  83 NE9       30.15F WCI   3
PAGE, AZ       NOT AVBL
GRAND CANYON   PTCLDY    12  -6  44 CALM      30.23S
KINGMAN        CLEAR     32   7  35 SE7       30.26F WCI  26
FLAGSTAFF      PTCLDY    14  -4  44 CALM      30.21R

$$

REGIONAL REPORTS    NEVADA/IDAHO/WYOMING

CITY           SKY/WX    TMP DP  RH WIND       PRES   REMARKS
LAS VEGAS, NV  PTCLDY    46   9  22 S9        30.23R
ELY            CLEAR     14  32 100 S9        30.30R WCI   2
ELKO           CLEAR     26  21  81 CALM      30.28F
POCATELLO, ID  PTCLDY    32  27  81 SW22G29   30.11R WCI  19
BURLEY         CLOUDY    34  24  67 W13G22    30.15S WCI  25
EVANSTON, WY   FLURRIES  22  20  92 SW17      30.08F WCI   8
ROCK SPRINGS   CLOUDY    22  16  78 W31       29.99F WCI   4

$$


USA.gov is the U.S. government's official web portal to all federal, state and local government web resources and services.